User: anonymous   Login
Location: Diebersbach
(48.5163°N, 8.0558°E)
Time: 15:43:21
(UTC+00:00)
Language:

Cosmos 1633 - Orbit

View from above orbital plane
View from above orbital plane
View from above satellite
View from above satellite

Ground track
Ground track

The orbit data is extracted from the following two-line orbital elements,

1 15592U 85020A   21262.90607264  .00002328  00000-0  72624-4 0  9994
2 15592  82.5401 195.9125 0014147  62.6650 297.6029 15.32583383  1960
Epoch (UTC): 19 September 2021 21:44:44
Eccentricity: 0.0014147
inclination: 82.5401°
perigee height: 458 km
apogee height: 478 km
right ascension of ascending node: 195.9125°
argument of perigee: 62.6650°
revolutions per day: 15.32583383
mean anomaly at epoch: 297.6029°
orbit number at epoch: 196

The dashed part of the orbit path shows where the satellite is in the earth's shadow,  

DLR